Location: Houhaj�rvi
(61.2833°N, 23.0000°E)
Time: 04:59:40
(UTC+00:00)

GP-B - Pass Details

Date: 27 February 2020
Orbit: 631 x 636 km, 89.8° (Epoch: 09 April)

Event Time Altitude Azimuth Distance (km) Brightness Sun altitude
Exits shadow 17:24:06 18° 111° (ESE) 1,587 4.6 -12.5°
Maximum altitude 17:26:16 25° 71° (ENE) 1,282 4.2 -12.8°
Drops below altitude 10° 17:29:57 10° 16° (NNE) 2,040 5.6 -13.2°
Sets 17:32:28 0° 4° (N) 2,953 6.6 -13.5°
